Regional Weather Roundup
Issued by NWS Charleston, SC

Current Version | Previous Version | Graphics & Text | Print | Product List | Glossary On
Versions: 1 2 3 4 5 6 7 8 9 10 11 12 13 14 15 16 17 18 19 20 21 22 23 24 25 26 27 28 29 30 31 32 33 34 35 36 37 38 39 40 41 42 43 44 45 46 47 48 49 50
000 ASUS42 KCHS 100612 RWRCHS REGIONAL WEATHER ROUNDUP NATIONAL WEATHER SERVICE CHARLESTON SC 100 AM EST SAT DEC 10 2016 NOTE: "FAIR" INDICATES FEW OR NO CLOUDS BELOW 12,000 FEET WITH NO SIGNIFICANT WEATHER AND/OR OBSTRUCTIONS TO VISIBILITY. NOT ALL STATIONS ARE QUALITY CONTROLLED. USE DATA WITH CAUTION... ESPECIALLY DEWPOINT OBSERVATIONS. SCZ027-030-031-034>040-042>050-100700- ...SOUTHEAST SOUTH CAROLINA... CITY SKY/WX TMP DP RH WIND PRES REMARKS N CHARLESTON CLEAR 36 23 59 NE13 30.45F WCI 27 6HR MIN TEMP: 34; 6HR MAX TEMP: 40; WATERFRONT PRK N/A 42 32 67 N15 30.43F MOUNT PLEASANT NOT AVBL JOHNS ISLAND FAIR 39 23 52 N9 30.45S WCI 33 PINOPOLIS N/A 43 27 52 NE15 30.40S MONCKS CORNER FAIR 36 19 51 NE7 30.48S WCI 30 SUMMERVILLE FAIR 30 30 100 N5 30.47F WCI 25 BEAUFORT MCAS CLEAR 36 25 64 NE7 30.46R WCI 30 6HR MIN TEMP: 35; 6HR MAX TEMP: 42; BEAUFORT ARPT FAIR 37 30 75 N10 30.45S WCI 30 HILTON HEAD IS CLEAR 41 28 60 N7 30.46R WALTERBORO PTCLDY 34 27 75 N5 30.47F WCI 30 ALLENDALE FAIR 36 25 64 N3 30.46F ...SOUTHERN MIDLANDS AND PEE DEE... CITY SKY/WX TMP DP RH WIND PRES REMARKS GEORGETOWN NOT AVBL KINGSTREE FAIR 27 23 86 CALM 30.49S ORANGEBURG CLEAR 29 26 89 CALM 30.48F 6HR MIN TEMP: 29; 6HR MAX TEMP: 36; BARNWELL NOT AVBL AIKEN FAIR 27 23 86 CALM 30.50S MANNING FAIR 27 25 93 CALM 30.49R COLUMBIA CLEAR 28 23 81 CALM 30.48F 6HR MIN TEMP: 28; 6HR MAX TEMP: 36; SUMTER CLEAR 28 20 72 NE6 30.46F WCI 22 6HR MIN TEMP: 28; 6HR MAX TEMP: 36; FLORENCE CLEAR 29 23 78 N7 30.49F WCI 22 6HR MIN TEMP: 27; 6HR MAX TEMP: 37; MYRTLE BEACH CLEAR 34 23 64 N5 30.50S WCI 30 N MYRTLE BEACH CLEAR 30 23 75 N3 30.48R 6HR MIN TEMP: 30; 6HR MAX TEMP: 36; $$ GAZ063-065-086>088-099>101-113>116-118-119-134>141-150-100700- ...SOUTHEAST GEORGIA... CITY SKY/WX TMP DP RH WIND PRES REMARKS SAVANNAH ARPT CLEAR 33 28 81 CALM 30.46R 6HR MIN TEMP: 33; 6HR MAX TEMP: 40; HUNTER AAF CLEAR 33 31 93 CALM 30.42S 6HR MIN TEMP: 32; 6HR MAX TEMP: 45; FORT STEWART CLEAR 31 27 85 CALM 30.43S 6HR MIN TEMP: 31; 6HR MAX TEMP: 38; STATESBORO CLEAR 32 30 94 CALM 30.45F SYLVANIA CLEAR N/A N/A N/A CALM 30.46S CLAXTON FAIR 32 32 100 CALM 30.45F ...CSRA...CENTRAL AND FAR SOUTHEAST GEORGIA... CITY SKY/WX TMP DP RH WIND PRES REMARKS THOMSON CLEAR 28 28 99 CALM 30.51S AUGUSTA-BUSH CLEAR 28 24 85 CALM 30.48R 6HR MIN TEMP: 28; 6HR MAX TEMP: 35; AUGUSTA-DANIEL CLEAR 34 23 64 CALM 30.47S SWAINSBORO FAIR 36 23 60 NE6 30.46S WCI 31 VIDALIA CLEAR 34 30 86 N5 30.45S WCI 30 EASTMAN FAIR 32 18 56 CALM 30.48S HAZLEHURST FAIR 34 31 87 N3 30.43S ALMA CLEAR 30 28 92 CALM 30.43F 6HR MIN TEMP: 29; 6HR MAX TEMP: 42; WAYCROSS CLOUDY 33 32 96 CALM 30.43F JESUP FAIR 32 32 100 CALM 30.44F BAXLEY FAIR 32 32 100 CALM 30.43S BRUNSWICK PTCLDY 37 32 81 N5 30.44S WCI 34 SAINT SIMONS CLEAR 41 32 70 N7 30.42F 6HR MIN TEMP: 40; 6HR MAX TEMP: 46; $$ SCZ027-028-034-036>038-045-046-048>050-GAZ119-141-100700- ...LAKE AND SUPPLEMENTAL COASTAL OBSERVATIONS... STATION/POSITION TIME TEMP WIND PRES WAVE SWELL AIR SEA DIR/SP/G HT/PER HT/PER/DIR (UTC) (F) (DEG/KT/KT) (MB) (FT/S) (FT/S/D) WINYAH BAY NOT AVBL LAKE MURRAY 0520 33 CALM / 2 1031.5S ACE BASIN NERRS 0445 38 10/ 2 1031.0 FORT PULASKI 0548 50/ 10/ 14 1031.2R SAPELO ISLAND 0500 38 360/ 4 1030.0 $$ ANZ835-935-AMZ111-154-330-350-352-354-370-450-454-472-100700- ...C-MAN AND BUOY OBSERVATIONS... STATION/POSITION TIME TEMP WIND PRES WAVE SWELL AIR SEA DIR/SP/G HT/PER HT/PER/DIR (UTC) (F) (DEG/KT/KT) (MB) (FT/S) (FT/S/D) BUOY 41004 0550 50 73 20/ 14/ 19 1029.6F 4/ 5 2/ 60/ 8 BUOY 41008 0550 51 62 40/ 14/ 17 1029.8F 3/ 5 2/ 80/ 7 FOLLY BEACH CMAN 0500 43 10/ 15/ 17 1031.2F CAPERS NEARSHORE 0508 44 60 20/ 17/ 21 1030.9F FRIPP NEARSHORE 0508 47 59 30/ 14/ 19 1030.7R STATION/POSITION TIME TEMP WIND PRES WAVE SWELL AIR SEA DIR/SP/G HT/PER HT/PER/DIR (UTC) (F) (DEG/KT/KT) (MB) (FT/S) (FT/S/D) 5E ST. MARYS GA 0600 64 N/A 4/ 5 FRYING PAN BUOY 0550 45 72 350/ 14/ 19 1031.0S 3/ 4 2/ 80/ 9 BUOY 41025 0550 42 77 10/ 14/ 21 1029.6F 5/ 9 3/ 60/ 9 CAPE LOOKOUT NC 0500 38 340/ 11/ 13 1030.6S BUOY 41002 0450 57 73 330/ 12/ 16 1026.7 6/ 7 5/360/ 7 BUOY 41010 NOT AVBL ST AUGUSTINE FL 0600 56 63 20/ 18/ 21 1028.9F $$

USA.gov is the U.S. government's official web portal to all federal, state and local government web resources and services.